カタログに戻る

CZ-3B DEB

運用中GTO
NORAD 40191·DEBRIS·🇨🇳 China

打ち上げ Dec 19, 2011 から Xichang Satellite Launch Center

Loading…

TLE

古いSource: Space-Track

元期: Sep 4, 2026, 22:44 UTC

1 40191U 11077Q   26247.94736910  .00000420  00000-0 -18549-3 0  9998
2 40191  25.6922 225.8821 7472473 246.6974  22.9882  1.95224481 81357

AllMySatでCZ-3B DEBをリアルタイム追跡

Download on the App Store